sat.trackr.live / text

‹ back to catalog

STARLINK-6233

NORAD 57229 · 2023-094M

PAYLOAD ACTIVE UNKNOWN

§ Identity

Operator
Country
US
Launch date
2023-07-07
Launch site
AFWTR
Launch vehicle
Mass (kg)
RCS (m²)

Purposes: comms

External: N2YO · Heavens-Above · Gunter

§ Orbital elements

Epoch: 2026-05-25T04:48:21.974976Z

Period
94.27 min
Inclination
43.0062°
Eccentricity
0.0002038
Mean motion
15.27576646 rev/d
Perigee alt
481.7 km
Apogee alt
484.5 km
Semi-major
6,861.2 km
B*
1.0119e-5
RAAN
318.8996°
Arg perigee
274.9651°
Mean anomaly
85.0968°
Rev number
15,881

§ Raw data

STARLINK-62331 57229U 23094M   26145.20025434  .00000016  00000+0  10119-4 0  99932 57229  43.0062 318.8996 0002038 274.9651  85.0968 15.27576646158811

JSON: /api/v1/satellites/57229 · /tle

For live sub-satellite position, see the globe view (requires WebGL).

§ Visibility from observer

Set your observer location to see the next 7 days of passes ≥ 10°. The values pass through the URL so the page stays shareable.

No JS? Fill the form by hand. The geolocation button needs JavaScript.